#timestamp,LO_Frequency,Hit,StdDev 
1664719215.9,286047002.3,N
1664719235.7,286047002.0,N
1664719255.5,286047002.9,N
1664719275.4,286047005.5,N
1664719295.2,286047007.6,N
1664719315.0,286047007.2,N
1664719315.9,286047007.2,N
1664719335.8,286047007.9,N
1664719355.6,286047008.9,N
1664719375.5,286047006.8,N
1664719395.3,286047005.2,N
1664719415.1,286047003.3,N
1664719435.9,286047005.0,N
1664719455.7,286047004.5,N
1664719475.5,286047002.5,N
1664719495.4,286046998.8,N
1664719515.2,286046997.3,N
1664719535.1,286046996.9,N
1664719536.0,286046996.9,N
1664719555.8,286046998.7,N
1664719575.6,286046995.5,N
1664719595.5,286046993.5,N
1664719615.3,286046994.5,N
1664719635.1,286046992.4,N
1664719655.9,286046990.9,N
1664719675.7,286046993.1,N
1664719695.6,286046991.3,N
1664719715.4,286046990.0,N
1664719735.2,286046990.7,N
1664719755.1,286046991.2,N
1664719756.0,286046991.2,N
1664719775.8,286046993.1,N
1664719795.7,286046990.2,N
1664719815.5,286046989.3,N
1664719835.3,286046988.7,N
1664719855.2,286046987.3,N
1664719875.9,286046988.4,N
1664719895.7,286046987.7,N
1664719915.6,286046987.8,N
1664719935.4,286046988.0,N
1664719955.3,286046985.6,N
1664719975.1,286046986.7,N
1664719976.0,286046986.7,N
1664719995.8,286046984.0,Y
1664720015.7,286046991.8,P
1664720035.5,286046991.8,P
1664720055.3,286046991.8,P
1664720075.2,286046993.8,Y
1664720095.0,286046999.8,P
1664720095.9,286046999.8,N
1664720115.8,286047001.2,N
1664720135.6,286046998.3,N
1664720155.4,286046997.0,N
1664720175.3,286046996.7,N
1664720195.1,286046995.0,N
1664720215.9,286046995.0,N
1664720235.7,286046997.5,N
1664720255.5,286046996.2,N
1664720275.4,286046994.0,N
1664720295.2,286046993.4,N
1664720315.0,286046993.5,N
1664720315.9,286046993.5,N
1664720335.8,286046993.6,N
1664720355.6,286046993.8,N
1664720375.5,286046994.5,N
1664720395.3,286046991.7,Y
1664720415.1,286046999.0,P
1664720435.9,286046999.3,N
1664720455.7,286046995.3,P
1664720475.5,286046996.3,N
1664720495.4,286046993.9,Y
1664720515.2,286046996.7,P
1664720535.1,286046999.6,N
1664720536.0,286046999.6,N
1664720555.8,286046997.8,N
1664720575.6,286046997.1,N
1664720595.5,286046997.1,N
1664720615.3,286046997.6,N
1664720635.1,286046998.0,N
1664720655.9,286046996.8,Y
1664720675.7,286047001.1,P
1664720695.6,286046999.4,N
1664720715.4,286046996.7,N
1664720735.2,286046997.3,N
1664720755.1,286046998.4,N
1664720756.0,286046998.4,N
1664720775.8,286047001.1,N
1664720795.7,286046999.2,N
1664720815.5,286046997.4,N
1664720835.3,286046997.3,N
1664720855.2,286046995.9,N
1664720875.0,286046993.5,Y
1664720875.9,286046993.5,P
1664720895.7,286046998.0,N
1664720915.6,286046997.9,N
1664720935.4,286046995.4,N
1664720955.3,286046997.8,N
1664720975.1,286046997.4,N
1664720976.0,286046997.4,N
1664720995.8,286046995.4,N
1664721015.7,286046998.0,N
1664721035.5,286046997.6,N
1664721055.4,286046997.8,N
1664721075.2,286046993.7,Y
1664721095.0,286046996.7,P
1664721095.9,286046996.7,P
1664721115.8,286046999.6,N
1664721135.6,286046996.7,N
1664721155.4,286046998.1,N
1664721175.3,286046999.0,N
1664721195.1,286046999.0,N
1664721215.9,286046999.4,N
1664721235.7,286046997.0,N
1664721255.5,286047001.0,N
1664721275.4,286046998.7,N
1664721295.2,286046998.9,N
1664721315.0,286046998.4,N
1664721315.9,286046998.4,N
1664721335.8,286047001.2,N
1664721355.6,286046999.3,N
1664721375.5,286047000.8,N
1664721395.3,286047000.9,N
1664721415.1,286046996.7,N
1664721435.9,286046996.7,N
1664721455.7,286046997.8,N
1664721475.6,286046997.2,N
1664721495.4,286046998.4,N
1664721515.2,286047000.6,N
1664721535.1,286046997.3,N
1664721536.0,286046997.3,N
1664721555.8,286046995.4,Y
1664721575.7,286046997.5,P
1664721595.5,286046998.0,P
1664721615.3,286046997.2,P
1664721635.2,286046998.9,N
1664721655.9,286046996.5,Y
1664721675.7,286047001.2,P
1664721695.6,286046998.1,N
1664721715.4,286046998.4,N
1664721735.3,286046997.0,N
1664721755.1,286046998.1,N
1664721756.0,286046998.1,N
1664721775.8,286046997.4,N
1664721795.7,286046999.0,N
1664721815.5,286046998.6,N
1664721835.3,286046998.2,N
1664721855.2,286047000.4,N
1664721875.0,286047000.7,N
1664721875.9,286047000.7,N
1664721895.8,286047001.2,N
1664721915.6,286047001.2,N
1664721935.4,286047000.9,N
1664721955.3,286047001.1,N
1664721975.1,286046999.4,N
1664721995.8,286046998.1,N
1664722015.7,286046998.2,N
1664722035.5,286046999.4,N
1664722055.4,286046996.5,N
1664722075.2,286046999.3,N
1664722095.0,286046999.4,N
1664722095.9,286046999.4,N
1664722115.8,286046997.2,N
1664722135.6,286046994.9,Y
1664722155.4,286046996.5,P
1664722175.3,286046999.1,N
1664722195.1,286046998.7,N
1664722215.9,286046999.3,N
1664722235.7,286046996.9,Y
1664722255.5,286047000.3,P
1664722275.4,286046998.3,N
1664722295.2,286046997.2,P
1664722315.1,286046997.3,N
1664722316.0,286046997.3,N
1664722335.8,286046999.6,N
1664722355.6,286046998.7,N
1664722375.5,286046998.9,N
1664722395.3,286046999.4,N
1664722415.1,286046996.5,Y
1664722435.9,286046998.7,P
1664722455.7,286046998.4,P
1664722475.6,286046998.5,P
1664722495.4,286047001.0,Y
1664722515.2,286047001.6,P
1664722535.1,286046999.8,N
1664722536.0,286046999.8,N
1664722555.8,286047004.4,Y
1664722575.7,286047001.7,P
1664722595.5,286047002.7,P
1664722615.3,286047001.5,N
1664722635.2,286047004.0,Y
1664722655.0,286046998.4,P
1664722655.9,286046998.4,N
1664722675.7,286047001.2,N
1664722695.6,286047000.3,N
1664722715.4,286047002.3,N
1664722735.3,286047000.2,N
1664722755.1,286047000.7,N
1664722756.0,286047000.7,N
1664722775.8,286047001.1,N
1664722795.7,286047000.7,N
